www.pogodaiklimat.ru

Погода и климат >> Архив погоды >> Россия >> Камчатский край >> Усть-Воямполка


ПОГОДА в Усть-Воямполке

  • Прогноз погоды в Усть-Воямполке
  • Монитор погоды в Усть-Воямполке

АРХИВ ПОГОДЫ в Усть-Воямполке

Время (UTC), дата Ветер
(напр.,м/с)
 
Видим.   Явления Облачность Т
(С)
Тd
(С)
f
(%)
Тe
(С)
Тes
(С)
Комфортность P
(гПа)
Po
(гПа)
Тmin
(С)
Tmax
(С)
R
(мм)
R24
(мм)
S
(см)
00 20.03 С 8-11
{11}
50 км позёмок 8/0
[Ac trans]
-17.2 -18.9 87 -29 -28 1006.6 1005.6
06 20.03 С 7
{11}
50 км позёмок 10/0
[As op]
-13.8 -16.6 79 -24 -24 1005.3 1004.4
12 20.03 С 6 20 км позёмок 10/10 600 м
[Sc]
-10.9 -12.5 88 -20 -20 1003.8 1002.9
18 20.03 СВ 6
{10}
20 км позёмок 10/10 600 м
[Sc]
-8.4 -12.5 72 -17 -17 1001.1 1000.2
00 21.03 Ю 5 50 км {метель} 10/10 300 м
[St]
-10.8 -13.6 80 -19 -19 1001.3 1000.4 -13.3
06 21.03 Ю 5 10 км слаб. снег 10/0
[As op]
-11.4 -12.7 90 -19 -19 1003.1 1002.2
12 21.03 ЮВ 4 4000 м слаб. снег 10/0 600 м
[As op]
-12.3 -13.5 91 -19 -19 1008.2 1007.3
18 21.03 ЮВ 4 20 км {снег} 10/10 600 м
[Sc]
-11.9 -13.0 92 -19 -19 1011.5 1010.6
00 22.03 ЮВ 2 50 км 10/10 600 м
[Sc]
-9.9 -11.4 89 -14 -14 1013.4 1012.5
06 22.03 С 2 50 км 10/0
[Ac trans]
-9.8 -11.2 89 -14 -14 1011.5 1010.6
12 22.03 В 8-11
{11}
н/о {метель} н/о -8.4 -8.9 96 -18 -18 1008.0 1007.1
18 22.03 В 7
{10}
20 км позёмок 10/0
[Ac trans]
-2.3 -7.6 67 -10 -10 1004.3 1003.4
00 23.03 В 6-10
{10}
50 км {метель} 4/0
[Ci fib]
-0.5 -8.0 57 -7 -4 1001.5 1000.6
06 23.03 В 7-10
{12}
50 км 3/0
[Ci fib]
-1.8 -9.3 57 -9 -9 997.0 996.1
12 23.03 СВ 7
{10}
20 км {метель} 8/0
[Ac trans]
-4.0 -9.2 67 -12 -12 994.8 994.0
18 23.03 СВ 6
{13}
20 км 10/0
[Ac trans]
-5.4 -10.4 68 -13 -13 992.6 991.7
00 24.03 СВ 6
{10}
н/о н/о -4.5 -11.8 57 -12 -12 991.6 990.7
06 24.03 С 5
{10}
50 км 10/0
[Ac trans]
-5.9 -9.5 76 -13 -13 990.7 989.8
12 24.03 С 12-15
{16}
20 км позёмок 10/0
[Ac trans]
-9.1 -13.7 69 -20 -20 991.4 990.5
18 24.03 СВ 7
{20}
20 км {метель} 10/0
[Ac trans]
-9.6 -13.1 76 -19 -19 990.8 989.9
00 25.03 С 7-10
{12}
10 км слаб. снег {метель} 10/0 600 м
[As op]
-9.0 -10.9 86 -18 -18 990.4 989.5
06 25.03 СВ 3
{11}
20 км {снег, метель} 9/0
[Ac trans]
-7.9 -13.7 63 -13 -13 989.9 989.0
12 25.03 ЮВ 3 20 км 10/10 600 м
[Sc]
-13.6 -15.9 83 -20 -20 990.6 989.6
18 25.03 ЮВ 4 4000 м слаб. ливневой снег 10/10 600 м
[Cb cap]
-14.8 -16.3 88 -23 -23 989.7 988.8
00 26.03 ЮВ 6 4000 м слаб. ливневой снег {метель} 10/10 600 м
[Cb cap]
-11.8 -13.2 89 -21 -21 987.3 986.4
06 26.03 СЗ 9-11
{12}
20 км позёмок {ливн. осадки} 10/10 600 м
[Sc]
-6.6 -9.2 82 -16 -16 986.7 985.8
12 26.03 З 3 20 км {ливн. осадки, метель} 10/10 600 м
[Sc]
-7.1 -8.0 93 -13 -13 987.7 986.8
18 26.03 З 3 20 км 10/10 600 м
[Sc]
-8.3 -9.5 91 -14 -14 989.8 988.9

 

Местоположение метеостанции Усть-Воямполка (Камчатский край, Россия): широта 58.50 долгота 159.10 высота над уровнем моря 7 м.

В архиве по умолчанию представлена погода в Усть-Воямполке за последнюю неделю. Архивные данные за месяц целиком и за предыдущие месяцы, начиная с января 2011 года, Вы можете получить, выбрав интересующий диапазон дат из раскрывающегося списка и нажав кнопку "Ввод!".


*Определитесь, кто Вы:
робот инопланетянин человек

Внимание! Время в таблицах - всемирное. Для получения местного времени необходимо прибавить поправку, которая равна 12 ч.

Смотрите также архив погоды в соседних городах и на ближайших метеорологических станциях:

Погода в Палане (Камчатский край, Россия) (79 км)
Погода в Тигиле (Камчатский край, Россия) (88 км)
Погода в Усть-Хайрюзово (Камчатский край, Россия) (213 км)
Погода в Оссоре (Камчатский край, Россия) (238 км)
Погода на Мысе Озерном (Камчатский край, Россия) (259 км)
Погода в Ключах (Камчатский край, Россия) (263 км)
Погода в Козыревске (Камчатский край, Россия) (276 км)
Погода в Эссо (Камчатский край, Россия) (287 км)
Погода в Брохово (Магаданская область, Россия) (308 км)
Погода на Шелихова (Магаданская область, Россия) (309 км)

Пояснения к столбцам:

Ветер - указаны скорость ветра в м/с - средняя за 10 мин, порывы в срок и между сроками (в фигурных скобках) и направление, откуда дует ветер: С - северный, СВ - северо-восточный, В - восточный, ЮВ - юго-восточный, Ю - южный, ЮЗ - юго-западный, З - западный, СЗ - северо-западный.
Видимость - горизонтальная дальность видимости в метрах или километрах. При видимости от 1 до 10 км при отсутствии осадков обычно наблюдается дымка, при ухудшении видимости до 1 км и менее - туман. В сухую погоду видимость может ухудшаться дымом, пылью или мглою.
Явления - указаны атмосферные явления, наблюдавшиеся в срок или в последний час перед сроком; фигурными скобками обозначены явления, наблюдавшиеся между сроками (за 1-3 часа до срока); квадратными скобками обозначены град или гололедные отложения с указанием их диаметра в мм.
Облачность - указаны через наклонную черту общая и нижняя облачность в баллах и высота нижней границы облаков в метрах; квадратными скобками обозначены формы облаков: Ci - перистые, Cs - перисто-слоистые, Cc - перисто-кучевые, Ac - высококучевые, As - высокослоистые, Sc - слоисто-кучевые, Ns - слоисто-дождевые, Cu - кучевые, Cb - кучево-дождевые. Подробнее классификацию облаков см. в Атласе облаков (PDF).
T - Температура воздуха - температура, измеренная на высоте 2 м над землей.
Td - Температура точки росы - температура, при понижении до которой содержащийся в воздухе водяной пар достигнет насыщения.
f - Относительная влажность воздуха - влажноcть воздуха, измеренная на высоте 2 м над землей.
Te - Эффективная температура - температура, которую ощущает одетый по сезону человек в тени. Характеристика душности погоды. При расчете учитывается влияние влажности воздуха и скорости ветра на теплоощущения человека.
Tes - Эффективная температура на солнце - температура, которую ощущает человек, с поправкой на солнечный нагрев. Характеристика знойности погоды. Зависит от высоты солнца над горизонтом, облачности и скорости ветра. Ночью, в пасмурную погоду, а также при ветре 12 м/с и более поправка равна нулю.
P - Атмосферное давление - приведенное к уровню моря атмосферное давление.
Po - Атмосферное давление - измеренное на уровне метеостанции атмосферное давление.
Tmin - Минимальная температура - минимум температуры воздуха на высоте 2 м над землей.
Tmax - Максимальная температура - максимум температуры воздуха на высоте 2 м над землей.
R - Количество осадков - Количество выпавших осадков за период времени, мм. При наведении курсора мыши на число - период времени, за который выпало указанное количество осадков.
R24 - Количество осадков - Количество выпавших осадков за 24 часа, мм.
S - Снежный покров - Высота снежного покрова, см. При наведении курсора мыши на число - состояние снежного покрова и степень покрытия местности в баллах.